Regional Weather Roundup
Issued by NWS

Home | Current Version | Previous Version | Text Only | Print | Product List | Glossary Off
Versions: 1 2 3 4 5 6 7 8 9 10 11 12 13 14 15 16 17 18 19 20 21 22 23 24 25 26 27 28 29 30 31 32 33 34 35 36 37 38 39 40 41 42 43 44 45 46 47 48 49 50

000
ASUS45 KBOU 251107
RWRCO

WEATHER ROUNDUP FOR COLORADO
NATIONAL WEATHER SERVICE DENVER/BOULDER CO
500 AM MDT MON JUL 25 2016

NOTE: "FAIR" INDICATES FEW OR NO CLOUDS BELOW 12000 FEET WITH NO
SIGNIFICANT WEATHER AND/OR OBSTRUCTIONS TO VISIBILITY.

COZ001>005-013-030-031-251200-
...NORTHWEST COLORADO...

CITY           SKY/WX    TMP DP  RH WIND       PRES   REMARKS
CRAIG          FAIR      46  39  76 CALM      30.26R
HAYDEN         FAIR      55  37  50 E14       30.28
MEEKER         FAIR      49  39  68 NE5       30.27S
MOUNT WERNER   NOT AVBL
STEAMBOAT SPGS FAIR      48  40  72 W3        30.31S
WALDEN         FAIR      41  34  75 E5        30.42F
$$

COZ006>008-011-251200-
...WEST CENTRAL VALLEYS...

CITY           SKY/WX    TMP DP  RH WIND       PRES   REMARKS
GRAND JUNCTION FAIR      69  42  37 E6        30.12R
MONTROSE       FAIR      66  40  38 SE12      30.23S
EAGLE          FAIR      50  41  71 E5        30.36S
RIFLE          FAIR      58  39  49 S5        30.22R
DELTA          FAIR      67  41  38 NE7       30.19S
NUCLA          FAIR     N/A N/A N/A E10       30.27R
$$

COZ017>023-064>068-251200-
...SOUTHWEST COLORADO...

CITY           SKY/WX    TMP DP  RH WIND       PRES   REMARKS
DURANGO        FAIR      60  46  59 N6        30.33R
CORTEZ         FAIR      62  47  57 CALM      30.25R
PAGOSA SPRINGS FAIR      54  42  62 CALM      30.41S
TELLURIDE      FAIR      55  41  58 SE7       30.53R
WOLF CREEK PAS FAIR      48  37  66 SW10      30.74S
$$

COZ009-010-012-014-032>034-037-058>063-251200-
...CENTRAL COLORADO...

CITY           SKY/WX    TMP DP  RH WIND       PRES   REMARKS
ASPEN          FAIR      51  38  60 S6        30.39R
BUENA VISTA    FAIR      49  42  77 NW7       30.46S
COPPER MTN     FAIR      54  34  47 S13       30.72S
BERTHOUD PASS  FAIR      45  32  61 W8        30.75R
COTTONWOOD PAS FAIR      55  39  54 W6        30.58S
GUNNISON       FAIR      48  37  66 CALM      30.46R
KREMMLING      FAIR      43  39  87 CALM      30.41S
LEADVILLE      FAIR      42  37  82 CALM      30.57S
MONARCH PASS   FAIR      50  37  62 S3        30.82S
SALIDA         FAIR      57  47  71 W5        30.50R
SUNLIGHT       FAIR      55  32  41 CALM      30.64R
WILKERSON PASS FAIR      46  39  76 W6        30.70R
$$

COZ069>075-251200-
...SAN LUIS VALLEY/SANGRE DE CRISTO MOUNTAINS...

CITY           SKY/WX    TMP DP  RH WIND       PRES   REMARKS
ALAMOSA        FAIR      54  45  71 NW3       30.38S
LA VETA PASS   FAIR      54  41  62 S8        30.58S
SAGUACHE       FAIR      54  43  66 N13       30.43S
$$

COZ035-036-038>040-251200-
...NORTHERN COLORADO FRONT RANGE...

CITY           SKY/WX    TMP DP  RH WIND       PRES   REMARKS
DENVER INTL AP FAIR      61  53  75 SW9       30.22F
DMNS CITY PARK   N/A     59  57  91 E1        30.23S
AURORA         PTCLDY    58  53  85 SW5       30.24F
FRONT RANGE AP NOT AVBL
ERIE MUNI ARPT FAIR      56  54  92 S3        30.21F
BOULDER MUN AP FAIR      59  54  82 SW3       30.22F
CENTENNIAL     FAIR      61  52  72 CALM      30.25F
BROOMFIELD     FAIR      55  54  94 W3        30.24F
LONGMONT       FAIR      59  56  91 CALM      30.22F
$$

COZ041-046-047-076>085-087-088-251200-
...PIKES PEAK/PALMER DIVIDE AND SOUTHERN FOOTHILLS...

CITY           SKY/WX    TMP DP  RH WIND       PRES   REMARKS
COLO. SPRINGS  FAIR      57  53  86 NW6       30.32F
A. F. ACADEMY  FAIR      54  51  91 E2        30.32F
SCHRIEVER AFB  NOT AVBL
ELLICOTT       FAIR     N/A N/A N/A NE7       30.30F
FALCON         FAIR      55  53  94 W8        30.35F
FORT CARSON    FAIR      58  54  88 NW5       30.28F
LIMON          FAIR      57  54  89 CALM      30.25F
MONUMENT HILL  FAIR      54  50  87 SW12      30.34F
TRINIDAD       NOT AVBL
$$

COZ042>045-048>051-090-091-251200-
...NORTHEAST COLORADO...

CITY           SKY/WX    TMP DP  RH WIND       PRES   REMARKS
GREELEY ARPT   FAIR      55  54  94 NE6       30.20F
AKRON          FAIR      56  53  90 E3        30.23R
BURLINGTON     FAIR      60  56  86 NE7       30.22R
WRAY           NOT AVBL
STERLING       FAIR      55  54  94 CALM      30.19S
HOLYOKE          N/A     59  55  88 CALM      30.20R
FORT MORGAN    FAIR      59  55  87 CALM      30.21F
$$

COZ086-089-092>099-251200-
...SOUTHEAST COLORADO...

CITY           SKY/WX    TMP DP  RH WIND       PRES   REMARKS
PUEBLO         FAIR      65  56  72 W5        30.22F
LA JUNTA       FAIR      63  61  93 W5        30.21R
LAMAR          FAIR      59  58  96 CALM      30.16R
SPRINGFIELD      N/A     57  55  93 NW3       30.21S
$$



USA.gov is the U.S. government's official web portal to all federal, state and local government web resources and services.